Location: *
(51.8167°N, 12.5000°E)
Time: 07:04:09
(UTC+00:00)

SAR-Lupe-2 - Pass Details

Date: 16 September 2019
Orbit: 481 x 485 km, 98.2° (Epoch: 07 October)

Event Time Altitude Azimuth Distance (km) Brightness Sun altitude
Rises 18:25:49 0° 16° (NNE) 2,567 7.3 -10.3°
Reaches altitude 10° 18:27:55 10° 19° (NNE) 1,680 6.3 -10.6°
Maximum altitude 18:31:30 67° 103° (ESE) 530 3.5 -11.1°
Drops below altitude 10° 18:35:04 10° 187° (S) 1,662 6.1 -11.7°
Sets 18:37:06 0° 190° (S) 2,529 7.1 -12.0°
